Location: Elmsmere
(40.9284°N, 73.8207°W)
Time: 22:34:02
(UTC+00:00)

STARLINK-2748 - Pass Details

Date: 25 June 2021
Orbit: 348 x 351 km, 53.0° (Epoch: 31 July)

Event Time Altitude Azimuth Distance (km) Brightness Sun altitude
Exits shadow 06:54:03 15° 106° (ESE) 1,041 5.2 -20.3°
Drops below altitude 10° 06:55:11 10° 86° (E) 1,311 6.0 -20.2°
Sets 06:57:36 0° 66° (ENE) 2,159 7.5 -20.0°
